This demonstration page uses our WeatherBlox Daily Observations layout. Learn more.

Left ArrowRight Arrow

41.86663, -103.66717

Hourly Observations for July 23, 2018

Temp ( °F °C ) Dew Point ( °F °C ) Humidity (%) Winds ( mph kmh ) Pressure ( in mb ) Visibility ( mi km ) Precip ( " mm )
12:53 am 00:53 Clear 68 20 63 17.2 84 84 W 3 6 30.13 1020 10 16 N/A
1:53 am 01:53 Clear 67 19.4 63 17.2 87 87 WNW 7 11 30.14 1021 10 16 N/A
2:53 am 02:53 Mostly Cloudy 68 20 64 17.8 87 87 NNE 7 11 30.14 1021 10 16 N/A
3:53 am 03:53 Mostly Clear 68 20 65 18.3 90 90 NE 7 11 30.16 1021 10 16 N/A
4:53 am 04:53 Partly Cloudy 67 19.4 66 18.9 97 97 N 3 6 30.18 1022 10 16 N/A
5:53 am 05:53 Sunny 66 18.9 65 18.3 96 96 E 8 13 30.17 1022 10 16 N/A
6:53 am 06:53 Mostly Cloudy 68 20 65 18.3 90 90 ESE 6 9 30.19 1022 10 16 N/A
7:11 am 07:11 Partly Cloudy 68 20 66 18.9 93 93 VRB 5 7 30.15 1021 10 16 N/A
7:53 am 07:53 Mostly Cloudy 69 20.6 64 17.8 84 84 ESE 6 9 30.20 1023 10 16 N/A
8:53 am 08:53 Mostly Cloudy 70 21.1 64 17.8 82 82 SSE 7 11 30.22 1023 10 16 N/A
9:53 am 09:53 Mostly Cloudy 71 21.7 64 17.8 79 79 SE 7 11 30.22 1024 10 16 N/A
10:53 am 10:53 Mostly Cloudy 71 21.7 62 16.7 73 73 SE 8 13 30.23 1024 10 16 N/A
11:53 am 11:53 Mostly Cloudy 75 23.9 61 16.1 62 62 ESE 8 13 30.21 1023 10 16 N/A
12:53 pm 12:53 Sunny 77 25 60 15.6 56 56 SSE 12 19 30.19 1022 10 16 N/A
1:53 pm 13:53 Partly Cloudy 77 25 61 16.1 58 58 SE 9 15 30.18 1022 10 16 N/A
2:53 pm 14:53 Mostly Cloudy 79 26.1 58 14.4 49 49 ESE 10 17 30.16 1021 10 16 N/A
3:53 pm 15:53 Mostly Cloudy 78 25.6 57 13.9 48 48 ESE 10 17 30.14 1021 10 16 N/A
4:53 pm 16:53 Mostly Cloudy 80 26.7 59 15 49 49 ESE 9 15 30.12 1020 10 16 N/A
5:53 pm 17:53 Mostly Cloudy 77 25 59 15 54 54 E 9 15 30.12 1020 10 16 N/A
6:53 pm 18:53 Sunny 75 23.9 62 16.7 64 64 ESE 9 15 30.11 1020 10 16 N/A
7:53 pm 19:53 Sunny 74 23.3 59 15 60 60 ESE 9 15 30.13 1020 10 16 N/A
8:53 pm 20:53 Mostly Cloudy 70 21.1 58 14.4 66 66 ESE 10 17 30.14 1021 10 16 N/A
9:53 pm 21:53 Clear 66 18.9 58 14.4 75 75 ESE 8 13 30.15 1021 10 16 N/A
10:53 pm 22:53 Mostly Clear 64 17.8 59 15 84 84 E 7 11 30.16 1021 10 16 N/A
11:53 pm 23:53 Partly Cloudy 63 17.2 59 15 87 87 ESE 7 11 30.16 1022 10 16 N/A

Powered by AerisWeather